Regional Weather Roundup
Issued by NWS

Home | Current Version | Previous Version | Graphics & Text | Print | Product List | Glossary On
Versions: 1 2 3 4 5 6 7 8 9 10 11 12 13 14 15 16 17 18 19 20 21 22 23 24 25 26 27 28 29 30 31 32 33 34 35 36 37 38 39 40 41 42 43 44 45 46 47 48 49 50
000
ASUS43 KOAX 240010
RWRNE

WEATHER ROUNDUP FOR NEBRASKA
NATIONAL WEATHER SERVICE OMAHA NE
700 PM CDT THU MAR 23 2017

NOTES: SATELLITE DATA IS BEING USED TO AUGMENT CLOUD COVER ABOVE
       12000 FEET.
       "FAIR" INDICATES FEW OR NO CLOUDS BELOW 12,000 FEET WITH NO
       SIGNIFICANT WEATHER AND/OR OBSTRUCTIONS TO VISIBILITY.

  * THESE STATIONS DO NOT REPORT WEATHER SUCH AS RAIN...SNOW OR FOG.

NEZ001>004-019>022-054>056-240100-
NEBRASKA PANHANDLE

CITY           SKY/WX    TMP DP  RH WIND       PRES   REMARKS
SCOTTSBLUFF    CLOUDY    61  42  49 N17       29.61R
6HR MIN TEMP:  58; 6HR MAX TEMP:  72; 6HR PCP:  0.01;

ALLIANCE       CLOUDY    60  37  42 NW20G36   29.64R
6HR MIN TEMP:  56; 6HR MAX TEMP:  74;

CHADRON        CLOUDY    49  42  77 NE20G33   29.73R
6HR MIN TEMP:  49; 6HR MAX TEMP:  68;

KIMBALL        CLOUDY    65  35  32 N21G32    29.59R
SIDNEY         CLOUDY    69  35  28 E15       29.55R
6HR MIN TEMP:  59; 6HR MAX TEMP:  77;

$$

NEZ057>060-069>072-079>082-240100-
SOUTHWEST NEBRASKA

CITY           SKY/WX    TMP DP  RH WIND       PRES   REMARKS
NORTH PLATTE   SUNNY     69  54  58 NE8       29.50F
6HR MIN TEMP:  55; 6HR MAX TEMP:  75;

IMPERIAL       CLOUDY    76  28  17 SE20G47   29.47F
6HR MIN TEMP:  65; 6HR MAX TEMP:  81;

LEXINGTON      CLOUDY    78  51  39 S24G31    29.47F
MCCOOK         SUNNY     81  52  36 SE21G33   29.43F
6HR MIN TEMP:  75; 6HR MAX TEMP:  87;

OGALLALA       CLOUDY    73  45  36 E13G22    29.51S
$$

NEZ005>010-023>029-035>040-094-240100-
NORTH CENTRAL NEBRASKA

CITY           SKY/WX    TMP DP  RH WIND       PRES   REMARKS
VALENTINE      CLEAR     65  44  46 NE5       29.61R
6HR MIN TEMP:  52; 6HR MAX TEMP:  66;

AINSWORTH      CLEAR     60  51  71 CALM      29.62R
BROKEN BOW     CLOUDY    67  31  26 NE9       29.52F
6HR MIN TEMP:  52; 6HR MAX TEMP:  68; 6HR PCP: TRACE;

O`NEILL        CLOUDY    57  56  95 CALM      29.64R FOG
ORD            MOCLDY    66  57  72 E6        29.55F
6HR MIN TEMP:  50; 6HR MAX TEMP:  67; 6HR PCP: TRACE;

THEDFORD       PTCLDY    69  51  52 SE7       29.58R
$$

NEZ041-046>049-061>064-073>077-083>087-240100-
SOUTH CENTRAL NEBRASKA

CITY           SKY/WX    TMP DP  RH WIND       PRES   REMARKS
GRAND ISLAND   CLOUDY    72  58  61 S17G30    29.56F
6HR MIN TEMP:  55; 6HR MAX TEMP:  74;

AURORA         CLOUDY    71  55  58 S20G28    29.59F
HASTINGS       CLEAR     72  56  57 SE20G26   29.57F
6HR MIN TEMP:  56; 6HR MAX TEMP:  76;

HEBRON         MOCLDY    71  56  58 S18G30    29.61F
HOLDREGE       CLOUDY    80  48  32 S25G35    29.51F
KEARNEY *      PTCLDY    75  55  50 SE23G30   29.53F
YORK           MOCLDY    70  55  60 S17G23    29.62S
$$

NEZ011>018-030>034-042>045-240100-
NORTHEAST NEBRASKA

CITY           SKY/WX    TMP DP  RH WIND       PRES   REMARKS
NORFOLK        PTCLDY    62  51  67 SE10      29.61F
6HR MIN TEMP:  53; 6HR MAX TEMP:  63; 6HR PCP:  0.01;

ALBION         PTCLDY    68  56  65 SE13      29.59R
BLAIR          CLOUDY    73  52  48 S16G24    29.65R
FREMONT        CLOUDY    72  52  49 S9        29.65R
TEKAMAH        CLOUDY    64  46  52 SE9       29.64R
6HR MIN TEMP:  58; 6HR MAX TEMP:  69; 6HR PCP: TRACE;

WAYNE          CLOUDY    59  47  63 SE16      29.62F
$$

NEZ050>053-065>068-078-088>093-240100-
SOUTHEAST NEBRASKA

CITY           SKY/WX    TMP DP  RH WIND       PRES   REMARKS
LINCOLN        CLOUDY    72  54  53 S14       29.65S
6HR MIN TEMP:  65; 6HR MAX TEMP:  77;

OMAHA EPPLEY   CLOUDY    74  52  46 S17       29.65R
6HR MIN TEMP:  62; 6HR MAX TEMP:  76; 6HR PCP: TRACE;

BEATRICE       CLOUDY    73  55  52 S22G30    29.64S
FALLS CITY     PTCLDY    77  51  40 S15G28    29.67F
6HR MIN TEMP:  67; 6HR MAX TEMP:  80;

NEBRASKA CITY  CLOUDY    73  42  32 S15       29.68R
PLATTSMOUTH    CLOUDY    73  46  37 S16       29.67S
$$

NEZ044-045-051>053-067-240100-
OMAHA AREA

CITY           SKY/WX    TMP DP  RH WIND       PRES   REMARKS
OMAHA EPPLEY   CLOUDY    74  52  46 S17       29.65R
6HR MIN TEMP:  62; 6HR MAX TEMP:  76; 6HR PCP: TRACE;

BLAIR          CLOUDY    73  52  48 S16G24    29.65R
FREMONT        CLOUDY    72  52  49 S9        29.65R
MILLARD        CLOUDY    75  54  47 S8        29.65S
OFFUTT AFB     CLOUDY    74  51  44 S13       29.65F
PLATTSMOUTH    CLOUDY    73  46  37 S16       29.67S
WAHOO          FAIR      72  51  47 S18G24    29.65R
$$




USA.gov is the U.S. government's official web portal to all federal, state and local government web resources and services.